Regional Weather Roundup
Issued by NWS Albany, NY

Home | Current Version | Previous Version | Graphics & Text | Print | Product List | Glossary Off
Versions: 1 2 3 4 5 6 7 8 9 10 11 12 13 14 15 16 17 18 19 20 21 22 23 24 25 26 27 28 29 30 31 32 33 34 35 36 37 38 39 40 41 42 43 44 45 46 47 48 49 50

700
ASUS41 KALY 240310
RWRALY

NEW YORK STATE HOURLY WEATHER ROUNDUP
NATIONAL WEATHER SERVICE ALBANY NY
1100 PM EDT SAT SEP 23 2017

NOTE: "FAIR" INDICATES FEW OR NO CLOUDS BELOW 12,000 FEET WITH NO
SIGNIFICANT WEATHER AND/OR NO OBSTRUCTIONS TO VISIBILITY.

NYZ032-033-038>043-046>054-057>066-NYZ062>081-082-084-240400-
EAST


CITY           SKY/WX    TMP DP  RH WIND       PRES   REMARKS
ALBANY         PTCLDY    66  60  81 CALM      30.08R
GLENS FALLS    CLEAR     61  59  93 CALM      30.07R
POUGHKEEPSIE   CLEAR     63  58  83 CALM      30.06R
NEWBURGH       CLEAR     66  61  82 CALM      30.09R
MONTGOMERY     CLEAR     62  61  96 CALM      30.07R
WHITE PLAINS   CLEAR     70  56  61 NW6       30.05S
ISLIP          CLEAR     67  65  93 CALM      30.04S
NEW YORK CITY  CLEAR     76  59  55 N3        30.03S
CENTRAL PARK   CLEAR     76  54  46 CALM      30.07S
$$

NYZ005>009-017-018-044>046-055-056-240400-
CENTRAL


CITY           SKY/WX    TMP DP  RH WIND       PRES   REMARKS
FULTON         CLEAR     62  60  93 CALM      30.09S
SYRACUSE       PTCLDY    66  62  87 SE5       30.09R
ROME           CLEAR     62  59  90 CALM      30.11R
ELMIRA         CLEAR     63  62  97 CALM      30.13R
BINGHAMTON     CLEAR     71  60  68 NW5       30.15R
MONTICELLO     CLEAR     65  59  81 CALM      30.14R
$$

NYZ026>034-041>043-087-240400-
NORTH


CITY           SKY/WX    TMP DP  RH WIND       PRES   REMARKS
WATERTOWN      CLEAR     68  61  78 S5        30.07S
FORT DRUM      NOT AVBL
OGDENSBURG     FAIR      63  60  91 CALM      30.07R
MASSENA        CLEAR     68  61  78 SW3       30.07R
SARANAC LAKE   CLEAR     57  57 100 CALM      30.13S FOG
PLATTSBURGH    CLEAR     63  60  90 VRB3      30.06R
$$

NYZ001>004-010>016-019>021-085-240400-
WEST


CITY           SKY/WX    TMP DP  RH WIND       PRES   REMARKS
NIAGARA FALLS  CLEAR     71  59  65 S5        30.10S
BUFFALO        CLEAR     69  64  84 S6        30.12S
DUNKIRK        CLEAR     63  63 100 S5        30.13S
JAMESTOWN      CLEAR     67  63  87 S3        30.20R
WELLSVILLE     CLEAR     68  62  81 CALM      30.21S
ROCHESTER      CLEAR     70  65  84 SW6       30.10S
PENN YAN       CLEAR     68  62  81 SW5       30.13S
$$

             KEY
       WCI = WIND CHILL INDEX
       VSB = VISIBILITY
       HX  = HEAT INDEX
$$




USA.gov is the U.S. government's official web portal to all federal, state and local government web resources and services.